Карточка аэропорта UUYY

Внимание!
Информация на этой странице в стадии наполнения.
Если вы не увидели какой-то информации, или заметили неточность - пожалуйста сообщите нам!
Спасибо!
Команда RU-STAFF
Название аэропортаСыктывкар
Название аэропорта (англ.)Syktyvkar
Превышение339 ft. (103.3 m.)
Координаты61°38.502', 50°50.298'
Высота перехода3000 feet
Эшелон переходаQNH>=1013hPa:FL040; QNH<1013hPa:FL050; QNH<977hPa:FL060
Коды ответчика3130-3134, 5752-5757, 5770-5777, 6701-6717
Зона ОрВДСанкт-Петербург РПИ (ULLL)
Данные METARUUYY 291130Z 04002MPS 9999 OVC010 M02/M03 Q1024 R18/520349 NOSIG RMK QFE759/1012
Проноз погоды (TAF)UUYY 290800Z 2909/0109 26003MPS 6000 -SHSN BKN007 BKN017CB TEMPO 2909/2915 1000 SHSN FZDZ BR BKN005 BKN016CB FM291500 12003MPS 6000 -SHSN BKN016CB TEMPO 2915/0109 -FZDZ BKN011
NOTAMshow/hide NOTAM
AWOS   TABLE

Информация о ВПП

ВПП Длина ВПП (м.) Покрытие Курс ВПП Частота ILS
012500Асфальтобетон6108.3
192500Асфальтобетон186111.7

Диспетчерские позиции

Позывной Наименование органа УВД Частота
UUYY_R_APPСивкар-Круг124.600
UUYY_TWRСивкар-Старт124.600



Спутниковое изображение